Simultaneous Nadir Overpasses (SNOs) Predictions

Prediction of SNOs between LANDSAT-8 and METOP-A Satellite Orbit:

Table of predicted SNOs for the next 14.0 days since TLE Epoch: 7/24/2021
Index Date (LANDSAT-8) Time (LANDSAT-8) Lat,Lon (LANDSAT-8) SZA (LANDSAT-8 ) Date (METOP-A) Time (METOP-A) Lat,Lon (METOP-A) SZA (METOP-A ) Distance(km) Time Diff (sec)
1 07/26/2021 08:45:25 -81.35, -87.40 115.66 07/26/2021 08:45:16 -81.35, -87.31 115.66 1.45 9
2 07/26/2021 09:34:52 81.33, 79.97 64.31 07/26/2021 09:35:57 81.35, 80.07 64.36 2.17 65
3 07/29/2021 04:19:41 -81.34, -21.08 115.03 07/29/2021 04:19:36 -81.35, -20.93 115.02 2.56 5
4 07/29/2021 05:09:07 81.35, 146.64 64.99 07/29/2021 05:10:16 81.33, 146.80 65.03 3.13 69
5 07/31/2021 23:04:30 81.35,-122.06 65.68 07/31/2021 23:03:17 81.36,-122.13 65.64 1.15 73
6 07/31/2021 23:53:57 -81.35, 45.58 114.31 07/31/2021 23:53:57 -81.35, 45.43 114.33 2.65 0
7 08/01/2021 00:43:23 81.36,-146.74 65.71 08/01/2021 00:44:37 81.33,-146.87 65.71 3.32 74
8 08/03/2021 18:38:47 81.34, -55.85 66.38 08/03/2021 18:37:38 81.36, -55.82 66.36 1.65 69
9 08/03/2021 19:28:14 -81.34, 111.81 113.61 08/03/2021 19:28:18 -81.35, 111.76 113.61 0.97 4
10 08/06/2021 14:13:02 81.35, 10.69 67.16 08/06/2021 14:11:57 81.35, 10.84 67.15 2.56 65



Historial Predications of SNOs between LANDSAT-8 and METOP-A
